Flight Track Log - Related Links

Times and Time Zones

All times are in EDT time to prevent confusion due to time zone crossing. See the USC105 flight status page for this flight to view local times or setup timezone preferences in your user account.

Time Position Orientation Groundspeed Altitude Reporting Facility
EDT Latitude Longitude Course Direction KTS MPH feet Rate Location/Type
Thu 11:06:38 PM 41.5525 -81.6764 350° North 132 152 2,000  Level Cleveland Center
Thu 11:07:38 PM 41.5897 -81.6936 341° North 139 160 2,900 942 Climbing Cleveland Center
Thu 11:08:39 PM 41.6144 -81.7303 312° West 137 158 3,900 934 Climbing Cleveland Center
Thu 11:09:40 PM 41.6306 -81.7778 294° West 136 157 4,800 893 Climbing Cleveland Center
Thu 11:10:40 PM 41.6469 -81.8197 298° West 135 155 5,700 893 Climbing Cleveland Center
Thu 11:11:00 PM 41.4118 -81.9813 246° West  Level FlightAware Approximate
Thu 11:11:41 PM 41.6650 -81.8644 298° West 131 151 6,600  Level Cleveland Center
Thu 11:12:42 PM 41.6814 -81.9067 297° West 133 153 7,400 694 Climbing Cleveland Center
Thu 11:13:42 PM 41.6953 -81.9597 289° West 148 170 8,000 347 Climbing Cleveland Center
Thu 11:14:43 PM 41.7175 -82.0158 298° West 182 209 8,100 50 Climbing Cleveland Center
Thu 11:15:43 PM 41.7417 -82.0775 298° West 181 208 8,100  Level Cleveland Center
Thu 11:16:44 PM 41.7617 -82.1392 294° West 184 212 8,100  Level Cleveland Center
Thu 11:17:45 PM 41.7839 -82.2039 295° West 184 212 8,100  Level Cleveland Center
Thu 11:18:45 PM 41.8058 -82.2628 297° West 184 212 8,100  Level Cleveland Center
Thu 11:19:01 PM 41.8142 -82.2769 308° West 184 212 8,100  Level Cleveland Center
Thu 11:19:50 PM 41.8300 -82.3303 292° West 185 213 8,100  Level Cleveland Center
Thu 11:20:50 PM 41.8539 -82.3922 297° West 186 214 8,100  Level Cleveland Center
Thu 11:21:45 PM 41.8739 -82.4517 294° West 187 215 8,100  Level Cleveland Center
Thu 11:22:39 PM 41.8917 -82.5106 292° West 185 213 8,100  Level Cleveland Center
Thu 11:23:40 PM 41.9136 -82.5700 296° West 185 213 8,100  Level Cleveland Center
Thu 11:24:41 PM 41.9375 -82.6347 296° West 189 217 8,100  Level Cleveland Center
Thu 11:25:41 PM 41.9592 -82.6969 295° West 188 216 8,100  Level Cleveland Center
Thu 11:26:42 PM 41.9808 -82.7647 293° West 189 217 8,100  Level Cleveland Center
Thu 11:27:36 PM 42.0006 -82.8214 295° West 190 219 8,100  Level Cleveland Center
Thu 11:28:37 PM 42.0222 -82.8892 293° West 190 219 8,100 -49 Level Cleveland Center
Thu 11:29:38 PM 42.0461 -82.9514 297° West 188 216 8,000 -397 Descending Cleveland Center
Thu 11:30:38 PM 42.0886 -83.0006 319° Northwest 211 243 7,300 -744 Descending Cleveland Center
Thu 11:31:39 PM 42.1314 -83.0583 315° West 212 244 6,500 -639 Descending Cleveland Center
Thu 11:32:40 PM 42.1675 -83.1158 310° West 201 231 6,000 -545 Descending Cleveland Center
Thu 11:33:40 PM 42.1953 -83.1814 300° West 203 234 5,400 -425 Descending Cleveland Center
Thu 11:34:47 PM 42.2228 -83.2525 298° West 185 213 5,100 -135 Descending Cleveland Center
Thu 11:35:53 PM 42.2486 -83.3125 300° West 171 197 5,100 -135 Level Cleveland Center
Thu 11:37:00 PM 42.2719 -83.3753 297° West 162 186 4,800 -563 Descending Cleveland Center
Thu 11:38:01 PM 42.3125 -83.4219 320° Northwest 201 231 3,900 -1,091 Descending Cleveland Center
Thu 11:39:01 PM 42.2969 -83.4606 241° Southwest 198 228 2,600 -1,091 Descending Cleveland Center
Thu 11:40:02 PM 42.2606 -83.5011 220° Southwest 142 163 1,700 -885 Descending Cleveland Center
Thu 11:42:00 PM 42.2393 -83.5310 226° Southwest  Level Estimated

Login

Don't have an account? Register now (free) for customized features, flight alerts, and more!